FW4685 Weather Reports


Display with metric or nautical units.
time (UTC)temp
F
wind
direction
speed
MPH
gust
MPH
rain 1hr
in
rain 24hr
in
rain mn
in
humidity
%
barometer
mb
20260903045015 66 286 0.0 10.0 0.00 0.07 0.00 89 1018.0
20260903044107 65 183 0.0 2.0 0.00 0.07 0.00 89 1017.8
20260903043017 66 250 0.0 5.0 0.00 0.07 0.00 89 1017.9
20260903042027 66 185 0.0 2.0 0.00 0.07 0.00 89 1017.8
20260903041022 66 163 1.0 5.0 0.00 0.07 0.00 89 1018.0
20260903040048 66 220 1.0 7.0 0.00 0.07 0.00 89 1017.9
20260903035021 66 100 0.0 2.0 0.00 0.07 0.00 88 1018.0
20260903034015 66 266 0.0 5.0 0.00 0.07 0.00 88 1018.1
20260903033031 66 62 0.0 2.0 0.00 0.07 0.00 88 1017.9
20260903032020 66 226 0.0 2.0 0.00 0.07 0.00 88 1017.8
20260903031036 66 177 0.0 5.0 0.00 0.07 0.00 88 1018.0
20260903030051 66 159 1.0 7.0 0.00 0.07 0.00 88 1017.8
20260903025020 66 187 1.0 5.0 0.00 0.07 0.00 88 1018.0
20260903024016 66 196 0.0 5.0 0.00 0.07 0.00 88 1018.1
20260903023029 66 214 0.0 5.0 0.00 0.07 0.00 88 1018.0
20260903022041 66 213 0.0 2.0 0.00 0.07 0.00 88 1017.8
20260903021036 66 176 1.0 5.0 0.00 0.07 0.00 88 1017.9
20260903020027 66 211 0.0 2.0 0.00 0.07 0.00 88 1018.1
20260903015020 65 146 0.0 2.0 0.00 0.07 0.00 88 1018.0
20260903014015 65 148 0.0 2.0 0.00 0.07 0.00 88 1018.2
20260903013027 65 207 0.0 2.0 0.00 0.07 0.00 88 1018.2
20260903012019 65 200 0.0 2.0 0.00 0.07 0.00 88 1018.4
20260903011016 65 221 0.0 2.0 0.00 0.07 0.00 88 1018.3
20260903010146 65 181 0.0 5.0 0.00 0.07 0.00 88 1018.3
20260903005019 65 158 0.0 5.0 0.00 0.07 0.00 88 1018.6
20260903004047 65 72 0.0 2.0 0.00 0.07 0.00 88 1018.8
20260903003019 65 219 1.0 7.0 0.00 0.07 0.00 88 1018.8
20260903002026 65 308 0.0 2.0 0.00 0.07 0.00 88 1018.7
20260903001020 65 163 0.0 5.0 0.00 0.07 0.00 89 1018.7
20260903000031 65 65 0.0 0.0 0.00 0.07 0.00 89 1018.9
20260902235043 65 222 0.0 2.0 0.00 0.07 0.00 89 1018.7
20260902234035 65 248 0.0 5.0 0.00 0.07 0.00 89 1018.8
20260902233023 65 166 0.0 5.0 0.00 0.07 0.00 89 1018.8
20260902232036 65 359 0.0 2.0 0.00 0.07 0.00 89 1019.0
20260902231026 65 139 0.0 2.0 0.00 0.07 0.00 89 1018.8
20260902230119 65 169 1.0 5.0 0.00 0.07 0.00 89 1018.8
20260902225030 65 243 0.0 2.0 0.00 0.07 0.07 89 1019.0
20260902224031 65 184 1.0 5.0 0.00 0.07 0.07 90 1019.1
20260902223026 65 248 0.0 2.0 0.00 0.07 0.07 90 1018.9
20260902222039 65 3 0.0 2.0 0.00 0.07 0.07 90 1019.2
20260902221031 65 178 0.0 5.0 0.00 0.07 0.07 90 1018.9
20260902220026 66 202 0.0 2.0 0.00 0.07 0.07 90 1018.7
20260902215021 66 160 0.0 2.0 0.00 0.07 0.07 89 1018.7
20260902214031 66 197 0.0 5.0 0.00 0.07 0.07 89 1018.7
20260902213029 66 123 0.0 2.0 0.00 0.07 0.07 89 1018.7
20260902212018 66 133 0.0 2.0 0.00 0.07 0.07 89 1018.6
20260902211016 66 149 0.0 5.0 0.00 0.07 0.07 89 1018.9
20260902210026 66 204 1.0 2.0 0.00 0.07 0.07 89 1018.9
20260902205020 66 194 0.0 2.0 0.00 0.07 0.07 89 1018.7
20260902204016 66 206 0.0 2.0 0.00 0.07 0.07 88 1018.8
20260902203047 66 144 1.0 5.0 0.00 0.07 0.07 89 1018.6
20260902202021 66 185 1.0 5.0 0.00 0.07 0.07 89 1018.5
20260902201030 66 181 0.0 5.0 0.00 0.07 0.07 89 1018.7
20260902200027 66 223 0.0 2.0 0.00 0.07 0.07 89 1018.7
20260902195018 66 278 0.0 2.0 0.00 0.07 0.07 89 1018.8
20260902194018 66 197 1.0 5.0 0.00 0.07 0.07 90 1018.6
20260902193047 66 235 0.0 2.0 0.00 0.07 0.07 90 1018.7
20260902192039 66 203 0.0 5.0 0.00 0.07 0.07 90 1018.5
20260902191017 66 222 0.0 2.0 0.00 0.07 0.07 91 1018.3
20260902190047 66 322 0.0 7.0 0.00 0.07 0.07 91 1018.3
20260902185019 65 228 0.0 5.0 0.00 0.07 0.07 91 1018.3
20260902184015 65 314 0.0 2.0 0.00 0.07 0.07 91 1018.5
20260902183026 65 183 1.0 7.0 0.00 0.07 0.07 90 1018.4
20260902182019 65 147 0.0 5.0 0.00 0.07 0.07 90 1018.6
20260902181026 65 233 0.0 2.0 0.00 0.07 0.07 90 1018.6
20260902180020 65 151 0.0 5.0 0.00 0.07 0.07 89 1018.6
20260902175015 65 202 0.0 5.0 0.00 0.07 0.07 89 1018.7
20260902174027 65 164 1.0 5.0 0.00 0.07 0.07 89 1018.8
20260902173021 65 178 1.0 7.0 0.00 0.07 0.07 88 1018.9
20260902172032 66 192 1.0 7.0 0.00 0.07 0.07 87 1018.8
20260902171028 66 150 1.0 7.0 0.00 0.07 0.07 86 1018.7
20260902170019 66 157 2.0 7.0 0.00 0.07 0.07 85 1018.8
20260902165027 67 196 1.0 5.0 0.00 0.07 0.07 83 1018.9
20260902164038 67 177 1.0 5.0 0.00 0.07 0.07 81 1019.1
20260902163026 67 146 2.0 12.0 0.00 0.07 0.07 81 1019.2
20260902162143 68 155 1.0 7.0 0.00 0.07 0.07 79 1019.1
20260902161015 68 168 2.0 10.0 0.00 0.07 0.07 78 1019.3
20260902160026 69 204 1.0 7.0 0.00 0.07 0.07 77 1019.3
20260902155018 69 178 3.0 12.0 0.00 0.07 0.07 76 1019.3
20260902154030 69 259 1.0 7.0 0.00 0.07 0.07 75 1019.5
20260902153027 69 159 1.0 5.0 0.00 0.07 0.07 75 1019.6
20260902152022 69 221 2.0 7.0 0.00 0.07 0.07 76 1019.7
20260902151026 69 211 3.0 17.0 0.00 0.07 0.07 71 1019.6
20260902150019 69 175 2.0 10.0 0.00 0.07 0.07 69 1019.8
20260902145031 70 127 1.0 7.0 0.00 0.07 0.07 70 1019.8
20260902144027 70 190 1.0 5.0 0.00 0.07 0.07 70 1020.0
20260902143022 70 165 3.0 10.0 0.00 0.07 0.07 68 1020.0
20260902142021 70 214 2.0 7.0 0.00 0.07 0.07 67 1020.0
20260902141030 70 188 1.0 5.0 0.00 0.07 0.07 67 1020.2
20260902140027 69 176 2.0 10.0 0.00 0.07 0.07 67 1020.0
20260902135019 69 171 1.0 7.0 0.00 0.07 0.07 66 1020.1
20260902134050 69 213 2.0 10.0 0.00 0.07 0.07 65 1020.3
20260902133026 69 210 3.0 10.0 0.00 0.07 0.07 67 1020.2
20260902132041 69 151 3.0 12.0 0.00 0.07 0.07 67 1020.3
20260902131030 69 181 1.0 7.0 0.00 0.07 0.07 67 1020.4
20260902130026 69 193 2.0 12.0 0.00 0.07 0.07 68 1020.6
20260902125018 69 345 1.0 5.0 0.00 0.07 0.07 69 1020.6
20260902124030 69 248 2.0 12.0 0.00 0.07 0.07 70 1020.6
20260902123026 69 159 1.0 15.0 0.00 0.07 0.07 71 1020.7
20260902122020 68 130 1.0 5.0 0.00 0.07 0.07 72 1020.7
20260902121035 68 174 1.0 7.0 0.00 0.07 0.07 73 1020.8
20260902120045 67 188 1.0 5.0 0.00 0.07 0.07 74 1020.9
20260902115020 67 210 1.0 5.0 0.00 0.07 0.07 77 1020.9
20260902114032 67 179 1.0 7.0 0.00 0.07 0.07 79 1021.2
20260902113026 67 199 1.0 5.0 0.01 0.07 0.07 83 1021.1
20260902112020 66 189 0.0 5.0 0.01 0.07 0.07 87 1021.2
20260902111049 66 120 0.0 2.0 0.06 0.07 0.07 88 1021.3
20260902110048 65 122 0.0 2.0 0.06 0.07 0.07 88 1021.4
20260902105018 64 220 0.0 2.0 0.07 0.07 0.07 90 1021.5
20260902104031 65 265 0.0 0.0 0.07 0.07 0.07 89 1021.6
20260902103023 65 224 0.0 5.0 0.06 0.06 0.06 89 1021.8
20260902102019 66 256 0.0 2.0 0.06 0.06 0.06 86 1021.8
20260902101030 67 183 0.0 2.0 0.01 0.01 0.01 84 1021.9
20260902100025 67 20 0.0 0.0 0.01 0.01 0.01 83 1021.8
20260902095019 67 270 0.0 5.0 0.00 0.00 0.00 81 1021.7
20260902094015 67 145 0.0 5.0 0.00 0.00 0.00 80 1021.8
20260902093026 67 164 0.0 2.0 0.00 0.00 0.00 78 1021.8
20260902092020 67 336 0.0 5.0 0.00 0.00 0.00 78 1021.9
20260902091029 67 212 0.0 2.0 0.00 0.00 0.00 79 1022.0
20260902090105 67 125 0.0 2.0 0.00 0.00 0.00 78 1021.9
20260902085017 67 189 0.0 2.0 0.00 0.00 0.00 78 1021.8
20260902084030 67 202 0.0 2.0 0.00 0.00 0.00 77 1021.8
20260902083041 66 3 0.0 5.0 0.00 0.00 0.00 77 1021.8
20260902082015 66 109 0.0 5.0 0.00 0.00 0.00 78 1021.6
20260902081047 65 201 0.0 5.0 0.00 0.00 0.00 78 1021.6
20260902080039 65 306 0.0 0.0 0.00 0.00 0.00 80 1021.4
20260902075015 64 195 0.0 0.0 0.00 0.00 0.00 81 1021.6
20260902074025 64 201 0.0 0.0 0.00 0.00 0.00 82 1021.4
20260902073031 63 319 0.0 0.0 0.00 0.00 0.00 83 1021.4
20260902072026 63 276 0.0 0.0 0.00 0.00 0.00 84 1021.4
20260902071019 62 241 0.0 0.0 0.00 0.00 0.00 85 1021.4
20260902070029 61 341 0.0 0.0 0.00 0.00 0.00 86 1021.4
20260902065026 61 336 0.0 0.0 0.00 0.00 0.00 86 1021.3
20260902064019 60 343 0.0 0.0 0.00 0.00 0.00 87 1021.3
20260902063015 60 328 0.0 0.0 0.00 0.00 0.00 87 1021.2
20260902062025 59 326 0.0 0.0 0.00 0.00 0.00 88 1021.1
20260902061019 59 338 0.0 0.0 0.00 0.00 0.00 89 1021.2
20260902060025 59 342 0.0 0.0 0.00 0.00 0.00 89 1021.2
20260902055020 59 347 0.0 0.0 0.00 0.00 0.00 89 1021.2
20260902054030 59 347 0.0 0.0 0.00 0.00 0.00 89 1021.1
20260902053026 59 348 0.0 0.0 0.00 0.00 0.00 89 1021.2
20260902052019 59 348 0.0 0.0 0.00 0.00 0.00 89 1021.0
20260902051518 59 349 0.0 0.0 0.00 0.00 0.00 89 1021.1
20260902051031 59 348 0.0 0.0 0.00 0.00 0.00 89 1021.0
20260902050021 59 350 0.0 0.0 0.00 0.00 0.00 88 1021.0